Tiempo atmosférico en la estación meteorológica de Tàrrega, Lleida (363 m.)



Fecha
DESCASC
Temp. máxima en grados centígrados (hora)
DESCASC
Temp. mínima en grados centígrados (hora)
DESCASC
Temp. media en grados centígrados
DESCASC
Racha de viento máxima en m/sg (hora)
DESCASC
Velocidad máxima media en intervalos de 10 minutos(hora)
DESCASC
Precipitaciones diarias en mm
DESCASC
Precipitaciones de 00:00 a 06:00 en mm
DESCASC
Precipitaciones de 06:00 a 12:00 en mm
DESCASC
Precipitaciones de 12:00 a 18:00 en mm
DESCASC
Precipitaciones de 18:00 a 24:00 en mm
DESCASC
23-06-2019 -- (--) -- (--) -- 10.83 (21:00) 4.72 (19:30) 0 0 0 0 0
22-06-2019 -- (--) -- (--) -- 7.78 (20:10) 3.61 (20:10) 0 0 0 0 0
21-06-2019 -- (--) -- (--) -- 4.72 (10:30) 2.22 (00:20) 12.4 0 12.3 0.1 0
20-06-2019 -- (--) -- (--) -- 10.56 (16:40) 4.44 (19:00) 0 0 0 0 0
19-06-2019 -- (--) -- (--) -- 6.39 (17:10) 2.5 (02:10) 0 0 0 0 0
18-06-2019 -- (--) -- (--) -- 11.94 (19:20) 5.28 (19:10) 0 0 0 0 0
17-06-2019 -- (--) -- (--) -- 11.11 (17:40) 5.56 (22:00) 0 0 0 0 0
16-06-2019 -- (--) -- (--) -- 7.78 (00:10) 3.06 (00:10) 0 0 0 0 0
15-06-2019 -- (--) -- (--) -- 8.33 (23:40) 3.89 (00:50) 0 0 0 0 0
14-06-2019 -- (--) -- (--) -- 8.33 (22:20) 3.89 (23:59) 0.1 0 0 0.1 0
13-06-2019 -- (--) -- (--) -- 9.72 (15:50) 4.72 (18:40) 0 0 0 0 0
12-06-2019 -- (--) -- (--) -- 8.89 (22:20) 4.17 (22:20) 0 0 0 0 0
11-06-2019 -- (--) -- (--) -- 6.67 (01:10) 2.5 (14:10) 4.8 2.5 1.7 0.6 0
10-06-2019 -- (--) -- (--) -- 7.78 (18:50) 3.06 (18:50) 0.3 0 0.3 0 0
09-06-2019 -- (--) -- (--) -- 6.39 (20:40) 3.33 (21:10) 0 0 0 0 0
08-06-2019 -- (--) -- (--) -- 9.44 (17:50) 4.72 (20:20) 0 0 0 0 0
07-06-2019 -- (--) -- (--) -- 9.17 (15:00) 3.33 (11:50) 0 0 0 0 0
06-06-2019 -- (--) -- (--) -- 13.61 (19:30) 5.83 (21:30) 0 0 0 0 0
05-06-2019 -- (--) -- (--) -- 11.67 (17:40) 6.39 (06:10) 0.5 0 0.4 0.1 0
04-06-2019 -- (--) -- (--) -- 12.22 (18:20) 6.11 (17:40) 0 0 0 0 0
03-06-2019 -- (--) -- (--) -- 10.28 (21:10) 4.72 (16:10) 0 0 0 0 0
02-06-2019 -- (--) -- (--) -- 11.39 (20:00) 4.72 (18:30) 0 0 0 0 0
01-06-2019 -- (--) -- (--) -- 8.89 (20:00) 4.17 (20:20) 0 0 0 0 0
31-05-2019 -- (--) -- (--) -- 8.33 (20:50) 3.61 (18:10) 0 0 0 0 0
30-05-2019 -- (--) -- (--) -- 7.78 (20:20) 3.89 (22:40) 0 0 0 0 0
29-05-2019 -- (--) -- (--) -- 7.78 (15:00) 2.5 (12:20) 0 0 0 0 0
28-05-2019 -- (--) -- (--) -- 10.28 (20:30) 3.89 (17:50) 0 0 0 0 0
27-05-2019 -- (--) -- (--) -- 8.33 (15:10) 2.78 (13:10) 0 0 0 0 0
26-05-2019 -- (--) -- (--) -- 6.94 (13:00) 2.5 (15:40) 0 0 0 0 0
25-05-2019 -- (--) -- (--) -- 5.83 (17:10) 2.5 (17:10) 0.1 0 0 0.1 0

Gráficas

Temp. máximas Temp. mínimas Temp. medias Precipitaciones Rachas de viento máximas Velocidades máximas media en intervalos de 10 minutos

Datos horarios

Fecha y hora oficial Temperatura (ºC) Velocidad del viento (km/h) Dirección del viento Racha (km/h) Dirección de racha Precipitación (mm) Presión (hPa) Tendencia (hPa) Humedad (%)
2019-06-23 23:00:00 47.6 5 Nordeste 22 Sudeste 0 -- -- 86
2019-06-23 22:00:00 -- 12 Sudeste 34 Sudeste 0 -- -- 84
2019-06-23 21:00:00 -- 17 Sudeste 39 Sudeste 0 -- -- 82
2019-06-23 20:00:00 -- 15 Sudeste 34 Sudeste 0 -- -- 82
2019-06-23 19:00:00 -- 13 Sudeste 38 Sudeste 0 -- -- 79
2019-06-23 18:00:00 -- 13 Sudeste 32 Sudeste 0 -- -- 78
2019-06-23 17:00:00 -- 9 Sur 26 Sudeste 0 -- -- 76
2019-06-23 16:00:00 -- 8 Sudeste 28 Sudeste 0 -- -- 74
2019-06-23 15:00:00 -- 7 Este 18 Sudeste 0 -- -- 74
2019-06-23 14:00:00 -- 4 Sur 13 Sudeste 0 -- -- 74
2019-06-23 13:00:00 -- 3 Sudoeste 10 Sur 0 -- -- 73
2019-06-23 12:00:00 -- 3 Noroeste 11 Noroeste 0 -- -- 74
2019-06-23 11:00:00 -- 3 Sudeste 11 Sudoeste 0 -- -- 74
2019-06-23 10:00:00 -- 3 Sudoeste 11 Sudeste 0 -- -- 78
2019-06-23 09:00:00 -- 0 Calma 11 Sudeste 0 -- -- 84
2019-06-23 08:00:00 -- 5 Sudeste 9 Sudeste 0 -- -- 83
2019-06-23 07:00:00 39.5 5 Sudeste 9 Sudeste 0 -- -- 85
2019-06-23 06:00:00 37.9 4 Sudeste 13 Sudeste 0 -- -- 85
2019-06-23 05:00:00 -- 6 Sudeste 14 Este 0 -- -- 85
2019-06-23 04:00:00 37.3 3 Este 17 Sudeste 0 -- -- 84
2019-06-23 03:00:00 -- 8 Este 17 Este 0 -- -- 85
2019-06-23 02:00:00 -- 3 Este 12 Nordeste 0 -- -- 86
2019-06-23 01:00:00 -- 5 Norte 12 Noroeste 0 -- -- 83
2019-06-23 00:00:00 -- 4 Noroeste 21 Sudeste 0 -- -- 84
2019-06-22 23:00:00 -- 13 Sudeste 24 Sudeste 0 -- -- 83
2019-06-22 22:00:00 -- 10 Sudeste 28 Sudeste 0 -- -- 84
2019-06-22 21:00:00 -- 10 Sudeste 28 Sudeste 0 -- -- 83
2019-06-22 20:00:00 -- 13 Sudeste 27 Sudeste 0 -- -- 81
2019-06-22 19:00:00 -- 6 Sudeste 23 Sudeste 0 -- -- 77
2019-06-22 18:00:00 -- 4 Oeste 14 Noroeste 0 -- -- 78
2019-06-22 17:00:00 -- 3 Oeste 18 Noroeste 0 -- -- 76
2019-06-22 16:00:00 -- 5 Oeste 18 Sudoeste 0 -- -- 75
2019-06-22 15:00:00 -- 2 Oeste 15 Sudoeste 0 -- -- 76
2019-06-22 14:00:00 -- 4 Sudoeste 15 Oeste 0 -- -- 76
2019-06-22 13:00:00 -- 4 Sudoeste 15 Sudoeste 0 -- -- 76
2019-06-22 12:00:00 -- 4 Sudoeste 14 Oeste 0 -- -- 76
2019-06-22 11:00:00 -- 0 Calma 14 Sudoeste 0 -- -- 78
2019-06-22 10:00:00 -- 4 Sudoeste 12 Sudoeste 0 -- -- 80
2019-06-22 09:00:00 -- 4 Noroeste 13 Oeste 0 -- -- 53
2019-06-22 08:00:00 -- 4 Noroeste 12 Oeste 0 -- -- 38
2019-06-22 07:00:00 43.5 0 Calma 8 Noroeste 0 -- -- 45
2019-06-22 06:00:00 38.5 0 Calma 5 Sudeste 0 -- -- 40
2019-06-22 05:00:00 40.8 0 Calma 5 Sudeste 0 -- -- 38
2019-06-22 04:00:00 -- 3 Sudeste 8 Sudoeste 0 -- -- 35
2019-06-22 03:00:00 -- 3 Sur 12 Oeste 0 -- -- 35
2019-06-22 02:00:00 -- 5 Sudoeste 15 Sudoeste 0 -- -- 34
2019-06-22 01:00:00 -- 2 Sudeste 9 Sudeste 0 -- -- 37
2019-06-22 00:00:00 -- 4 Sudeste 10 Sudeste 0 -- -- 34
2019-06-21 23:00:00 -- 4 Este 8 Este 0 -- -- 36
2019-06-21 22:00:00 -- 0 Calma 9 Noroeste 0 -- -- 79
2019-06-21 21:00:00 -- 5 Noroeste 13 Oeste 0 -- -- 80
2019-06-21 20:00:00 -- 4 Oeste 13 Sudoeste 0 -- -- 80
2019-06-21 19:00:00 -- 5 Oeste 15 Oeste 0 -- -- 79
2019-06-21 18:00:00 -- 4 Noroeste 13 Oeste 0 -- -- 79
2019-06-21 17:00:00 -- 2 Sudeste 13 Noroeste 0 -- -- 79
2019-06-21 16:00:00 -- 3 Norte 15 Norte 0 -- -- 77
2019-06-21 15:00:00 -- 5 Noroeste 14 Noroeste 0 -- -- 35
2019-06-21 14:00:00 -- 3 Noroeste 11 Nordeste 0 -- -- 24
2019-06-21 13:00:00 -- 5 Noroeste 12 Noroeste 0.1 -- -- 24
2019-06-21 12:00:00 -- 4 Noroeste 10 Oeste 0 -- -- 24
2019-06-21 11:00:00 -- 0 Calma 17 Noroeste 12.3 -- -- 24
2019-06-21 10:00:00 -- 4 Sudoeste 11 Oeste 0 -- -- 87
2019-06-21 09:00:00 -- 5 Oeste 15 Oeste 0 -- -- 87
2019-06-21 08:00:00 -- 3 Sudeste 5 Este 0 -- -- 89
2019-06-21 07:00:00 47.1 3 Sudeste 5 Sudeste 0 -- -- 90
2019-06-21 06:00:00 -- 0 Calma 9 Sudeste 0 -- -- 90
2019-06-21 05:00:00 -- 3 Sudeste 12 Sudeste 0 -- -- 89
2019-06-21 04:00:00 -- 4 Sudeste 6 Sudeste 0 -- -- 90
2019-06-21 03:00:00 47.4 0 Calma 6 Noroeste 0 -- -- 89
2019-06-21 02:00:00 -- 4 Noroeste 12 Sudeste 0 -- -- 89
2019-06-21 01:00:00 -- 7 Este 15 Este 0 -- -- 89
2019-06-21 00:00:00 -- 8 Este 15 Este 0 -- -- 87
2019-06-20 23:00:00 -- 6 Sudeste 10 Sudeste 0 -- -- 88
2019-06-20 22:00:00 -- 3 Este 16 Nordeste 0 -- -- 89
2019-06-20 21:00:00 -- 6 Norte 24 Sudeste 0 -- -- 88
2019-06-20 20:00:00 -- 11 Sudeste 33 Sudeste 0 -- -- 88
2019-06-20 19:00:00 -- 16 Sudeste 35 Sudeste 0 -- -- 85
2019-06-20 18:00:00 -- 11 Sur 38 Sudeste 0 -- -- 86
2019-06-20 17:00:00 -- 13 Sudeste 38 Sudeste 0 -- -- 83
2019-06-20 16:00:00 -- 12 Sur 30 Sudeste 0 -- -- 83
2019-06-20 15:00:00 -- 7 Sur 20 Sudeste 0 -- -- 82
2019-06-20 14:00:00 -- 5 Sur 22 Sudeste 0 -- -- 82
2019-06-20 13:00:00 -- 4 Norte 15 Noroeste 0 -- -- 81
2019-06-20 12:00:00 -- 4 Sudoeste 22 Sudeste 0 -- -- 81
2019-06-20 11:00:00 -- 6 Sudeste 26 Sudeste 0 -- -- 82
2019-06-20 10:00:00 -- 8 Sudeste 19 Este 0 -- -- 86
2019-06-20 09:00:00 -- 2 Este 14 Este 0 -- -- 89
2019-06-20 08:00:00 43.7 3 Oeste 23 Sudeste 0 -- -- 90
2019-06-20 07:00:00 31.9 8 Sudeste 16 Este 0 -- -- 89
2019-06-20 06:00:00 38 7 Este 14 Este 0 -- -- 90
2019-06-20 05:00:00 -- 9 Este 17 Este 0 -- -- 89
2019-06-20 04:00:00 -- 10 Este 24 Sudeste 0 -- -- 90
2019-06-20 03:00:00 33.2 5 Este 16 Sudeste 0 -- -- 89
2019-06-20 02:00:00 34.9 0 Calma 12 Sudeste 0 -- -- 90
2019-06-20 01:00:00 34.3 9 Sudeste 18 Este 0 -- -- 88
2019-06-20 00:00:00 42.5 6 Sudeste 10 Sudeste 0 -- -- 89
2019-06-19 23:00:00 43.3 4 Este 17 Sudeste 0 -- -- 89
2019-06-19 22:00:00 -- 8 Sudeste 18 Sudeste 0 -- -- 88
2019-06-19 21:00:00 -- 4 Sur 18 Sudeste 0 -- -- 88
2019-06-19 20:00:00 -- 4 Oeste 15 Sudoeste 0 -- -- 85
2019-06-19 19:00:00 -- 6 Oeste 17 Noroeste 0 -- -- 84
2019-06-19 18:00:00 -- 9 Noroeste 23 Sudoeste 0 -- -- 84
2019-06-19 17:00:00 -- 6 Oeste 22 Sudoeste 0 -- -- 83
2019-06-19 16:00:00 -- 5 Oeste -- -- -- -- -- 82
2019-06-19 15:00:00 -- 6 Oeste 21 Oeste 0 -- -- 82
2019-06-19 14:00:00 -- 8 Oeste 22 Sudoeste 0 -- -- 83
2019-06-19 13:00:00 -- 6 Sudoeste 19 Sudoeste 0 -- -- 83
2019-06-19 12:00:00 -- 0 Calma 18 Sudoeste 0 -- -- 81
2019-06-19 11:00:00 -- 3 Sudoeste 12 Noroeste 0 -- -- 83
2019-06-19 10:00:00 -- 3 Oeste 10 Noroeste 0 -- -- 86
2019-06-19 09:00:00 -- 0 Calma 9 Sudeste 0 -- -- 90
2019-06-19 08:00:00 -- 4 Sudeste 10 Sudeste 0 -- -- 90
2019-06-19 07:00:00 21.7 0 Calma -- -- 0 -- -- 90
2019-06-19 06:00:00 18.8 0 Calma 3 Norte 0 -- -- 90
2019-06-19 05:00:00 23.6 2 Nordeste 15 Sudeste 0 -- -- 89
2019-06-19 04:00:00 23.3 8 Sudeste 15 Este 0 -- -- 89
2019-06-19 03:00:00 -- 8 Sudeste 16 Este 0 -- -- 88
2019-06-19 02:00:00 -- 6 Este 18 Este 0 -- -- 89
2019-06-19 01:00:00 32.4 6 Este 16 Sudeste 0 -- -- 88
2019-06-19 00:00:00 -- 2 Nordeste 17 Este 0 -- -- 89
2019-06-18 23:00:00 44.7 5 Este 19 Este 0 -- -- 89
2019-06-18 22:00:00 -- 6 Nordeste 36 Sudeste 0 -- -- 88
2019-06-18 21:00:00 -- 6 Nordeste 35 Sudeste 0 -- -- 88
2019-06-18 20:00:00 -- 16 Sudeste 43 Sudeste 0 -- -- 87
2019-06-18 19:00:00 -- 15 Sudeste 36 Sudeste 0 -- -- 83
2019-06-18 18:00:00 -- 17 Sudeste 37 Sudeste 0 -- -- 85
2019-06-18 17:00:00 -- 12 Sudeste 37 Sudeste 0 -- -- 84
2019-06-18 16:00:00 -- 12 Sur 38 Sudeste 0 -- -- 83
2019-06-18 15:00:00 -- 12 Sudeste 31 Sudeste 0 -- -- 82
2019-06-18 14:00:00 -- 15 Sudeste 28 Sudeste 0 -- -- 82
2019-06-18 13:00:00 -- 9 Sudeste 22 Este 0 -- -- 81
2019-06-18 12:00:00 -- 6 Sur 19 Sudeste 0 -- -- 81
2019-06-18 11:00:00 -- 8 Sudeste 15 Sudeste 0 -- -- 83
2019-06-18 10:00:00 -- 2 Nordeste 7 Noroeste 0 -- -- 86
2019-06-18 09:00:00 -- 3 Sudeste 9 Sudeste 0 -- -- 88
2019-06-18 08:00:00 46.1 2 Sudeste 10 Sudeste 0 -- -- 88
2019-06-18 07:00:00 39.9 7 Sudeste 11 Sudeste 0 -- -- 89
2019-06-18 06:00:00 -- 2 Sur 7 Sudeste 0 -- -- 90
2019-06-18 05:00:00 32.1 3 Sudeste 7 Sudeste 0 -- -- 89
2019-06-18 04:00:00 -- 3 Sudeste 6 Sur 0 -- -- 88
2019-06-18 03:00:00 35.8 3 Sudeste 5 Este 0 -- -- 88
2019-06-18 02:00:00 -- 2 Sudeste 9 Sudeste 0 -- -- 88
2019-06-18 01:00:00 45.1 6 Sudeste 11 Este 0 -- -- 88
2019-06-18 00:00:00 -- 5 Este 11 Este 0 -- -- 88
2019-06-17 23:00:00 -- 0 Calma 35 Este 0 -- -- 88
2019-06-17 22:00:00 -- 20 Sudeste 36 Sudeste 0 -- -- 87
2019-06-17 21:00:00 -- 17 Sudeste 37 Sudeste 0 -- -- 85
2019-06-17 20:00:00 -- 17 Sudeste 35 Sudeste 0 -- -- 85
2019-06-17 19:00:00 -- 11 Sur 34 Sudeste 0 -- -- 84
2019-06-17 18:00:00 -- 12 Sur 40 Sudeste 0 -- -- 84
2019-06-17 17:00:00 -- 5 Noroeste 18 Noroeste 0 -- -- 80
2019-06-17 16:00:00 -- 3 Oeste 16 Oeste 0 -- -- 80
2019-06-17 15:00:00 -- 4 Oeste 15 Nordeste 0 -- -- 79
2019-06-17 14:00:00 -- 4 Noroeste 16 Oeste 0 -- -- 79
2019-06-17 13:00:00 -- 5 Noroeste 19 Oeste 0 -- -- 78
2019-06-17 12:00:00 -- 3 Oeste 13 Sudoeste 0 -- -- 78
2019-06-17 11:00:00 -- 3 Sudoeste 10 Sur 0 -- -- 78
2019-06-17 10:00:00 -- 4 Sudoeste 10 Sudoeste 0 -- -- 82
2019-06-17 09:00:00 -- 0 Calma 5 Sudeste 0 -- -- 88
2019-06-17 08:00:00 -- 0 Calma 7 Sudeste 0 -- -- 88
2019-06-17 07:00:00 -- 4 Sudeste 10 Este 0 -- -- 89
2019-06-17 06:00:00 41.5 3 Sudeste 8 Este 0 -- -- 89
2019-06-17 05:00:00 -- 4 Sudeste 8 Sur 0 -- -- 88
2019-06-17 04:00:00 46 3 Sur 9 Sur 0 -- -- 89
2019-06-17 03:00:00 -- 4 Sudeste 10 Sudeste 0 -- -- 90
2019-06-17 02:00:00 -- 5 Sudeste 12 Este 0 -- -- 87
2019-06-17 01:00:00 -- 2 Este 13 Nordeste 0 -- -- 88
2019-06-17 00:00:00 -- 5 Nordeste 14 Noroeste 0 -- -- 87
2019-06-16 23:00:00 -- 6 Este 15 Este 0 -- -- 87
2019-06-16 22:00:00 -- 8 Sudeste 22 Sudeste 0 -- -- 87
2019-06-16 21:00:00 -- 9 Sudeste 21 Sudeste 0 -- -- 86
2019-06-16 20:00:00 -- 6 Sur 18 Sudeste 0 -- -- 83
2019-06-16 19:00:00 -- 4 Sur 24 Sudoeste 0 -- -- 82
2019-06-16 18:00:00 -- 6 Noroeste 14 Noroeste 0 -- -- 80
2019-06-16 17:00:00 -- 4 Oeste 17 Oeste 0 -- -- 80
2019-06-16 16:00:00 -- 4 Oeste 20 Oeste 0 -- -- 80
2019-06-16 15:00:00 -- 6 Oeste 19 Oeste 0 -- -- 80
2019-06-16 14:00:00 -- 5 Oeste 18 Sur 0 -- -- 79
2019-06-16 13:00:00 -- 3 Oeste 14 Oeste 0 -- -- 79
2019-06-16 12:00:00 -- 0 Calma 14 Sudoeste 0 -- -- 79
2019-06-16 11:00:00 -- 3 Sudoeste 12 Noroeste 0 -- -- 80
2019-06-16 10:00:00 -- 3 Noroeste 10 Noroeste 0 -- -- 84
2019-06-16 09:00:00 -- 4 Sudoeste 9 Oeste 0 -- -- 88
2019-06-16 08:00:00 42.2 0 Calma 4 Sudeste 0 -- -- 90
2019-06-16 07:00:00 -5.5 0 Calma 6 Sudeste 0 -- -- 90
2019-06-16 06:00:00 -3.2 4 Sudeste 9 Sudeste 0 -- -- 84
2019-06-16 05:00:00 -3.9 5 Sudeste 12 Sudeste 0 -- -- 47
2019-06-16 04:00:00 -0.6 0 Calma 6 Este 0 -- -- 44
2019-06-16 03:00:00 -- 0 Calma 11 Sudeste 0 -- -- 86
2019-06-16 02:00:00 26.4 4 Sudeste 20 Sur 0 -- -- 88
2019-06-16 01:00:00 33.5 9 Sudeste 28 Sudeste 0 -- -- 88
2019-06-16 00:00:00 40.4 13 Sudeste 30 Sudeste 0 -- -- 87
2019-06-15 23:00:00 -- 6 Sudeste 15 Sudeste 0 -- -- 88
2019-06-15 22:00:00 -- 5 Sudeste 11 Sudeste 0 -- -- 88
2019-06-15 21:00:00 -- 2 Oeste 17 Noroeste 0 -- -- 86
2019-06-15 20:00:00 -- 9 Noroeste 24 Sudoeste 0 -- -- 83
2019-06-15 19:00:00 -- 8 Oeste 24 Noroeste 0 -- -- 82
2019-06-15 18:00:00 -- 6 Oeste 28 Noroeste 0 -- -- 83
2019-06-15 17:00:00 -- 6 Oeste 25 Sudoeste 0 -- -- 82
2019-06-15 16:00:00 -- 7 Oeste 24 Sudoeste 0 -- -- 81
2019-06-15 15:00:00 -- 8 Sudoeste 23 Oeste 0 -- -- 82
2019-06-15 14:00:00 -- 8 Oeste 22 Noroeste 0 -- -- 82
2019-06-15 13:00:00 -- 5 Oeste 23 Sudoeste 0 -- -- 82
2019-06-15 12:00:00 -- 6 Sudoeste 21 Sudoeste 0 -- -- 82
2019-06-15 11:00:00 -- 7 Oeste 23 Sudoeste 0 -- -- 82
2019-06-15 10:00:00 -- 6 Sudoeste 23 Sudoeste 0 -- -- 85
2019-06-15 09:00:00 46.3 8 Sudoeste 22 Sudoeste 0 -- -- 87
2019-06-15 08:00:00 -- 7 Sudoeste 19 Sudoeste 0 -- -- 88
2019-06-15 07:00:00 32 6 Sudoeste 21 Oeste 0 -- -- 84
2019-06-15 06:00:00 32.9 8 Sudoeste 19 Sudoeste 0 -- -- 86
2019-06-15 05:00:00 33.4 0 Calma 8 Sur 0 -- -- 89
2019-06-15 04:00:00 38.1 0 Calma 6 Sudeste 0 -- -- 89
2019-06-15 03:00:00 44.2 3 Sudeste 9 Sudeste 0 -- -- 88
2019-06-15 02:00:00 43.1 0 Calma 24 Sudeste 0 -- -- 89
2019-06-15 01:00:00 -- 13 Sudeste 27 Sudeste 0 -- -- 88
2019-06-15 00:00:00 -- 14 Sudeste 27 Sudeste 0 -- -- 88
2019-06-14 23:00:00 -- 11 Sudeste 30 Sudeste 0 -- -- 86
2019-06-14 22:00:00 -- 12 Sudeste 26 Sudeste 0 -- -- 88
2019-06-14 21:00:00 -- 9 Sudeste 22 Sudeste 0 -- -- 88
2019-06-14 20:00:00 -- 0 Calma 14 Sudoeste 0 -- -- 86
2019-06-14 19:00:00 -- 4 Oeste 19 Oeste 0 -- -- 84
2019-06-14 18:00:00 -- 6 Oeste 18 Noroeste 0 -- -- 85
2019-06-14 17:00:00 -- 7 Oeste 22 Sudoeste 0 -- -- 84
2019-06-14 16:00:00 -- 5 Oeste 26 Oeste 0.1 -- -- 86
2019-06-14 15:00:00 -- 8 Oeste 28 Sudoeste 0 -- -- 84
2019-06-14 14:00:00 -- 7 Sudoeste 22 Sudoeste 0 -- -- 83
2019-06-14 13:00:00 -- 4 Sudoeste 17 Sudoeste 0 -- -- 85
2019-06-14 12:00:00 -- 0 Calma 17 Sudoeste 0 -- -- 86
2019-06-14 11:00:00 -- 5 Sudoeste 16 Sudoeste 0 -- -- 86
2019-06-14 10:00:00 -- 5 Sudoeste 15 Oeste 0 -- -- 85
2019-06-14 09:00:00 32.9 0 Calma 16 Noroeste 0 -- -- 89
2019-06-14 08:00:00 23.8 2 Sur 8 Este 0 -- -- 90
2019-06-14 07:00:00 20.8 3 Sudoeste 12 Sudoeste 0 -- -- 90
2019-06-14 06:00:00 23.4 3 Sudoeste 10 Sur 0 -- -- 90
2019-06-14 05:00:00 20.4 3 Este 9 Este 0 -- -- 89
2019-06-14 04:00:00 21.2 5 Nordeste 15 Nordeste 0 -- -- 89
2019-06-14 03:00:00 21.8 5 Nordeste 12 Nordeste 0 -- -- 89
2019-06-14 02:00:00 26.8 3 Este 16 Nordeste 0 -- -- 89
2019-06-14 01:00:00 -- 5 Nordeste 13 Nordeste 0 -- -- 89
2019-06-14 00:00:00 32 3 Este 14 Este 0 -- -- 90
2019-06-13 23:00:00 30.9 4 Nordeste 27 Este 0 -- -- 89
2019-06-13 22:00:00 -- 9 Este 21 Sudeste 0 -- -- 89
2019-06-13 21:00:00 39.6 9 Sudeste 25 Sudeste 0 -- -- 87
2019-06-13 20:00:00 -- 13 Este 30 Este 0 -- -- 86
2019-06-13 19:00:00 -- 14 Sudeste 30 Sudeste 0 -- -- 85
2019-06-13 18:00:00 -- 9 Este 34 Sudeste 0 -- -- 85
2019-06-13 17:00:00 -- 10 Sur 28 Sudeste 0 -- -- 85
2019-06-13 16:00:00 -- 9 Sur 35 Sudeste 0 -- -- 83
2019-06-13 15:00:00 -- 8 Sudeste 20 Sudeste 0 -- -- 83
2019-06-13 14:00:00 -- 9 Este 23 Sudeste 0 -- -- 82
2019-06-13 13:00:00 -- 6 Sudeste 22 Sudeste 0 -- -- 84
2019-06-13 12:00:00 -- 7 Sudeste 21 Sudeste 0 -- -- 84
2019-06-13 11:00:00 -- 3 Este 17 Sudeste 0 -- -- 85
2019-06-13 10:00:00 -- 6 Este 19 Sudeste 0 -- -- 86
2019-06-13 09:00:00 -- 8 Este 20 Sudeste 0 -- -- 99
2019-06-13 08:00:00 -- 9 Este 23 Sudeste 0 -- -- 26
2019-06-13 07:00:00 -- 10 Este 21 Sudeste 0 -- -- 22
2019-06-13 06:00:00 -- 7 Este 18 Este 0 -- -- 22
2019-06-13 05:00:00 -- 4 Este 15 Este 0 -- -- 22
2019-06-13 04:00:00 -- 6 Este 21 Este 0 -- -- 28
2019-06-13 03:00:00 -- 2 Este 10 Nordeste 0 -- -- 52
2019-06-13 02:00:00 14.6 4 Nordeste 13 Sudeste 0 -- -- 88
2019-06-13 01:00:00 15.8 3 Noroeste 26 Sudeste 0 -- -- 90
2019-06-13 00:00:00 16 13 Sudeste 27 Sudeste 0 -- -- 87
2019-06-12 23:00:00 -- 14 Sudeste 32 Sudeste 0 -- -- 88
2019-06-12 22:00:00 -- 12 Sudeste 27 Sudeste 0 -- -- 87
2019-06-12 21:00:00 35.1 10 Sudeste 25 Sudeste 0 -- -- 90
2019-06-12 20:00:00 -- 4 Sur 13 Sudoeste 0 -- -- 87
2019-06-12 19:00:00 -- 3 Oeste 16 Oeste 0 -- -- 87
2019-06-12 18:00:00 -- 5 Noroeste 18 Noroeste 0 -- -- 85
2019-06-12 17:00:00 -- 5 Oeste 18 Noroeste 0 -- -- 85
2019-06-12 16:00:00 -- 8 Noroeste 21 Oeste 0 -- -- 84
2019-06-12 15:00:00 -- 5 Oeste 18 Oeste 0 -- -- 85
2019-06-12 14:00:00 -- 7 Oeste 18 Oeste 0 -- -- 24
2019-06-12 13:00:00 -- 4 Oeste 14 Oeste 0 -- -- 23
2019-06-12 12:00:00 -- 0 Calma 15 Sudoeste 0 -- -- 23
2019-06-12 11:00:00 -- 4 Sudoeste 15 Oeste 0 -- -- 23
2019-06-12 10:00:00 -- 7 Sudoeste 19 Sudoeste 0 -- -- 23
2019-06-12 09:00:00 -- 6 Sudoeste 17 Oeste 0 -- -- 23
2019-06-12 08:00:00 -- 3 Sur 7 Sur 0 -- -- 23
2019-06-12 07:00:00 -- 3 Sudeste 7 Sudeste 0 -- -- 20
2019-06-12 06:00:00 -- 0 Calma 10 Sur 0 -- -- 23
2019-06-12 05:00:00 -- 2 Sudeste 5 Sudeste 0 -- -- 23
2019-06-12 04:00:00 -- 2 Sudeste 9 Sudeste 0 -- -- 23
2019-06-12 03:00:00 -- 3 Sudeste 9 Sur 0 -- -- 23
2019-06-12 02:00:00 -- 0 Calma 9 Sudoeste 0 -- -- 23
2019-06-12 01:00:00 -- 3 Sur 10 Sudoeste 0 -- -- 23
2019-06-12 00:00:00 -- 3 Sur 12 Este 0 -- -- 23
2019-06-11 23:00:00 -- 0 Calma 9 Noroeste 0 -- -- 23
2019-06-11 22:00:00 -- 5 Sudeste 9 Sudeste 0 -- -- 23
2019-06-11 21:00:00 -- 4 Este 15 Sudeste 0 -- -- 23
2019-06-11 20:00:00 -- 7 Sudeste 13 Sudeste 0 -- -- 24
2019-06-11 19:00:00 -- 3 Sur 13 Oeste 0 -- -- 24
2019-06-11 18:00:00 -- 6 Sudoeste 15 Oeste 0 -- -- 24
2019-06-11 17:00:00 -- 3 Oeste 19 Sudoeste 0 -- -- 24
2019-06-11 16:00:00 -- 5 Oeste 18 Sudoeste 0 -- -- 19
2019-06-11 15:00:00 -- 5 Sudoeste 20 Sudoeste 0.1 -- -- 20
2019-06-11 14:00:00 -- 9 Oeste 20 Oeste 0 -- -- 20
2019-06-11 13:00:00 -- 3 Oeste 19 Oeste 0.5 -- -- 21
2019-06-11 12:00:00 -- 6 Oeste 15 Sudoeste 0.7 -- -- 20
2019-06-11 11:00:00 -- 6 Sudoeste 14 Sudoeste 0.6 -- -- 21
2019-06-11 10:00:00 -- 6 Sudoeste 15 Sudoeste 0.3 -- -- 20
2019-06-11 09:00:00 -- 6 Sudoeste 15 Sudoeste 0.1 -- -- 22
2019-06-11 08:00:00 -- 5 Sudoeste 14 Sudoeste 0 -- -- 21
2019-06-11 07:00:00 -- 0 Calma 6 Sudoeste 0 -- -- 19
2019-06-11 06:00:00 -- 4 Sudoeste 8 Noroeste 0.8 -- -- 20
2019-06-11 05:00:00 -- 2 Sudoeste 9 Sudoeste 1.2 -- -- 20
2019-06-11 04:00:00 -- 3 Sudoeste 18 Sudoeste 0.5 -- -- 15
2019-06-11 03:00:00 -- 7 Sudoeste 17 Sudoeste 0 -- -- 35
2019-06-11 02:00:00 7.1 6 Sudoeste 24 Oeste 0 -- -- 91
2019-06-11 01:00:00 6.4 8 Sudoeste 22 Sudoeste 0 -- -- 91
2019-06-11 00:00:00 2.8 5 Oeste 21 Sudoeste 0 -- -- 90
2019-06-10 23:00:00 9.3 4 Oeste 17 Sudoeste 0 -- -- 91
2019-06-10 22:00:00 10.8 7 Sudoeste 20 Sudoeste 0 -- -- 91
2019-06-10 21:00:00 13 9 Sudoeste 25 Sudoeste 0 -- -- 88
2019-06-10 20:00:00 -- 6 Oeste 27 Oeste 0 -- -- 88
2019-06-10 19:00:00 32.1 7 Oeste 28 Noroeste 0 -- -- 88
2019-06-10 18:00:00 -- 7 Oeste 24 Oeste 0 -- -- 89
2019-06-10 17:00:00 -- 7 Oeste 27 Oeste 0 -- -- 88
2019-06-10 16:00:00 20.8 6 Oeste 22 Sudoeste 0 -- -- 86
2019-06-10 15:00:00 23.9 8 Sudoeste 26 Sudoeste 0 -- -- 87
2019-06-10 14:00:00 18.3 6 Oeste 27 Oeste 0 -- -- 88
2019-06-10 13:00:00 17.6 9 Sudoeste 26 Oeste 0 -- -- 86
2019-06-10 12:00:00 -- 6 Oeste 23 Oeste 0 -- -- 86
2019-06-10 11:00:00 -- 7 Oeste 22 Oeste 0 -- -- 38
2019-06-10 10:00:00 -- 8 Sudoeste 19 Oeste 0.1 -- -- 19
2019-06-10 09:00:00 -- 6 Sudoeste 22 Oeste 0.2 -- -- --
2019-06-10 08:00:00 10.2 6 Sudoeste 14 Sudoeste 0 -- -- 92
2019-06-10 07:00:00 9.7 3 Sudoeste 13 Sudoeste 0 -- -- 90
2019-06-10 06:00:00 9 3 Sudoeste 15 Oeste 0 -- -- 91
2019-06-10 05:00:00 -- 6 Sudoeste 17 Sudoeste 0 -- -- 92
2019-06-10 04:00:00 9.5 5 Sudoeste 14 Sudoeste 0 -- -- 93
2019-06-10 03:00:00 8.4 3 Sudoeste 9 Sudoeste 0 -- -- 93
2019-06-10 02:00:00 9 3 Sudeste 10 Sudoeste 0 -- -- 93
2019-06-10 01:00:00 12.2 4 Este 13 Sudeste 0 -- -- 93
2019-06-10 00:00:00 11.3 5 Sudeste 14 Este 0 -- -- 92
2019-06-09 23:00:00 16.4 10 Sudeste 18 Sudeste 0 -- -- 92
2019-06-09 22:00:00 18.9 5 Sudeste 23 Sudeste 0 -- -- 92
2019-06-09 21:00:00 23.7 9 Sudeste 23 Sudeste 0 -- -- 91
2019-06-09 20:00:00 -- 4 Sur 15 Sudeste 0 -- -- 90
2019-06-09 19:00:00 -- 4 Oeste 14 Sudoeste 0 -- -- 90
2019-06-09 18:00:00 45.3 4 Sudoeste 15 Sudoeste 0 -- -- 88
2019-06-09 17:00:00 -- 7 Noroeste 17 Noroeste 0 -- -- 88
2019-06-09 16:00:00 -- 8 Noroeste 19 Noroeste 0 -- -- 87
2019-06-09 15:00:00 43.1 5 Oeste 15 Sudoeste 0 -- -- 87
2019-06-09 14:00:00 -- 0 Calma 12 Noroeste 0 -- -- 87
2019-06-09 13:00:00 -- 4 Sudeste 13 Nordeste 0 -- -- 88
2019-06-09 12:00:00 -- 2 Este 11 Este 0 -- -- 88
2019-06-09 11:00:00 -- 3 Nordeste 12 Sudeste 0 -- -- 87
2019-06-09 10:00:00 40 4 Este 14 Este 0 -- -- 90
2019-06-09 09:00:00 16.8 4 Sudeste 9 Sudeste 0 -- -- 93
2019-06-09 08:00:00 -- 3 Nordeste 9 Oeste 0 -- -- 93
2019-06-09 07:00:00 -- 0 Calma 17 Este 0 -- -- 92
2019-06-09 06:00:00 -- 5 Este 15 Este 0 -- -- 91
2019-06-09 05:00:00 20.9 5 Nordeste 13 Nordeste 0 -- -- 92
2019-06-09 04:00:00 17.6 5 Este 18 Nordeste 0 -- -- 91
2019-06-09 03:00:00 25.6 5 Este 21 Este 0 -- -- 93
2019-06-09 02:00:00 18.9 5 Este 18 Este 0 -- -- 92
2019-06-09 01:00:00 17.5 8 Este 15 Este 0 -- -- 91
2019-06-09 00:00:00 23.8 3 Este 14 Sudeste 0 -- -- 93
2019-06-08 23:00:00 19 4 Este 18 Este 0 -- -- 91
2019-06-08 22:00:00 30.6 7 Este 26 Sudeste 0 -- -- 92
2019-06-08 21:00:00 -- 12 Sudeste 30 Sudeste 0 -- -- 91
2019-06-08 20:00:00 -- 15 Sudeste 33 Sudeste 0 -- -- 91
2019-06-08 19:00:00 -- 13 Sudeste 33 Sudeste 0 -- -- 89
2019-06-08 18:00:00 -- 13 Sudeste 34 Sudeste 0 -- -- 89
2019-06-08 17:00:00 -- 7 Sur 26 Sudeste 0 -- -- 88
2019-06-08 16:00:00 -- 8 Sur 28 Sudeste 0 -- -- 86
2019-06-08 15:00:00 -- 4 Sur 15 Sudoeste 0 -- -- 86
2019-06-08 14:00:00 -- 5 Sudeste 17 Sudeste 0 -- -- 86
2019-06-08 13:00:00 -- 4 Sudoeste 13 Oeste 0 -- -- 86
2019-06-08 12:00:00 -- 5 Sudeste 13 Noroeste 0 -- -- 85
2019-06-08 11:00:00 -- 3 Noroeste 15 Noroeste 0 -- -- 86
2019-06-08 10:00:00 -- 3 Norte 8 Noroeste 0 -- -- 89
2019-06-08 09:00:00 23.5 3 Sudoeste 8 Oeste 0 -- -- 93
2019-06-08 08:00:00 -- 3 Sudeste 7 Sudeste 0 -- -- 99
2019-06-08 07:00:00 -- 3 Este 6 Noroeste 0 -- -- 99
2019-06-08 06:00:00 -- 3 Noroeste 13 Oeste 0 -- -- 99
2019-06-08 05:00:00 -- 3 Este 10 Sudeste 0 -- -- 98
2019-06-08 04:00:00 13.6 8 Sudeste 13 Sudeste 0 -- -- 91
2019-06-08 03:00:00 16.7 5 Sudeste 10 Sudeste 0 -- -- 92
2019-06-08 02:00:00 19.7 5 Sudeste 8 Sudeste 0 -- -- 91
2019-06-08 01:00:00 25.9 4 Sudeste 9 Sudeste 0 -- -- 91
2019-06-08 00:00:00 -- 4 Sudeste 11 Sudeste 0 -- -- 91
2019-06-07 23:00:00 35.4 3 Sudoeste 10 Oeste 0 -- -- 90
2019-06-07 22:00:00 -- 2 Sur 11 Sudoeste 0 -- -- 90
2019-06-07 21:00:00 -- 5 Sudoeste 21 Oeste 0 -- -- 89
2019-06-07 20:00:00 -- 5 Oeste 28 Oeste 0 -- -- 86
2019-06-07 19:00:00 -- 6 Oeste 30 Sudoeste 0 -- -- 86
2019-06-07 18:00:00 -- 6 Noroeste 31 Sudoeste 0 -- -- 84
2019-06-07 17:00:00 -- 7 Oeste 31 Noroeste 0 -- -- 84
2019-06-07 16:00:00 -- 8 Oeste 30 Noroeste 0 -- -- 84
2019-06-07 15:00:00 -- 9 Oeste 33 Sudoeste 0 -- -- 85
2019-06-07 14:00:00 -- 8 Oeste 32 Oeste 0 -- -- 86
2019-06-07 13:00:00 -- 9 Oeste 32 Sudoeste 0 -- -- 84
2019-06-07 12:00:00 -- 10 Oeste 30 Sudoeste 0 -- -- 86
2019-06-07 11:00:00 -- 7 Oeste 25 Oeste 0 -- -- 83
2019-06-07 10:00:00 -- 3 Oeste 10 Sudoeste 0 -- -- 89
2019-06-07 09:00:00 -- 0 Calma 11 Este 0 -- -- 95
2019-06-07 08:00:00 -- 4 Este 10 Este 0 -- -- 99
2019-06-07 07:00:00 -- 6 Este 13 Sudeste 0 -- -- 94
2019-06-07 06:00:00 -- 4 Este 12 Este 0 -- -- 86
2019-06-07 05:00:00 -- 4 Este 12 Este 0 -- -- 87
2019-06-07 04:00:00 -- 4 Este 15 Nordeste 0 -- -- 95
2019-06-07 03:00:00 -- 6 Nordeste 17 Este 0 -- -- 99
2019-06-07 02:00:00 -- 7 Nordeste 24 Nordeste 0 -- -- 99
2019-06-07 01:00:00 27.4 5 Este 17 Nordeste 0 -- -- 91
2019-06-07 00:00:00 28.8 3 Norte 23 Este 0 -- -- 89
2019-06-06 23:00:00 -- 8 Norte 22 Nordeste 0 -- -- 90
2019-06-06 22:00:00 -- 9 Sudeste 39 Sudeste 0 -- -- 89
2019-06-06 21:00:00 -- 17 Sudeste 42 Sudeste 0 -- -- 88
2019-06-06 20:00:00 -- 15 Sudeste 49 Sudeste 0 -- -- 89
2019-06-06 19:00:00 -- 19 Sudeste 42 Sudeste 0 -- -- 88
2019-06-06 18:00:00 -- 13 Sudeste 35 Sudeste 0 -- -- 87
2019-06-06 17:00:00 43 12 Sudeste 42 Sudeste 0 -- -- 86
2019-06-06 16:00:00 -- 9 Sur 33 Sudeste 0 -- -- 85
2019-06-06 15:00:00 -- 13 Sudeste 40 Sudeste 0 -- -- 84
2019-06-06 14:00:00 -- 15 Sudeste 39 Sudeste 0 -- -- 85
2019-06-06 13:00:00 -- 13 Sudeste 32 Sudeste 0 -- -- 85
2019-06-06 12:00:00 -- 5 Sudoeste 14 Sudoeste 0 -- -- 82
2019-06-06 11:00:00 -- 0 Calma 9 Sudoeste 0 -- -- 84
2019-06-06 10:00:00 -- 3 Oeste 8 Sudoeste 0 -- -- 87
2019-06-06 09:00:00 -- 0 Calma 7 Sudoeste 0 -- -- 99
2019-06-06 08:00:00 -- 3 Este 6 Sudeste 0 -- -- 99
2019-06-06 07:00:00 -- 3 Sudeste 9 Este 0 -- -- 99
2019-06-06 06:00:00 -- 4 Sudeste 8 Sudeste 0 -- -- 99
2019-06-06 05:00:00 -- 3 Sudeste 6 Sudeste 0 -- -- 99
2019-06-06 04:00:00 -- 0 Calma 4 Sudeste 0 -- -- 99
2019-06-06 03:00:00 15.9 0 Calma 6 Sur 0 -- -- 90
2019-06-06 02:00:00 22.9 4 Sudoeste 15 Sudoeste 0 -- -- 89
2019-06-06 01:00:00 26 3 Sudoeste 17 Sur 0 -- -- 90
2019-06-06 00:00:00 -- 5 Sur 19 Sudoeste 0 -- -- 88
2019-06-05 23:00:00 30.5 7 Sudoeste 18 Sudoeste 0 -- -- 88
2019-06-05 22:00:00 -- 8 Sudoeste 28 Sudoeste 0 -- -- 88
2019-06-05 21:00:00 -- 8 Oeste 39 Sudoeste 0 -- -- 87
2019-06-05 20:00:00 -- 9 Oeste 40 Oeste 0 -- -- 87
2019-06-05 19:00:00 -- 14 Oeste 35 Sudoeste 0 -- -- 85
2019-06-05 18:00:00 -- 10 Oeste 42 Oeste 0 -- -- 85
2019-06-05 17:00:00 -- 10 Oeste 36 Sudoeste 0 -- -- 86
2019-06-05 16:00:00 47 4 Oeste 31 Sudoeste 0 -- -- 88
2019-06-05 15:00:00 39.3 7 Oeste 26 Sudoeste 0 -- -- 88
2019-06-05 14:00:00 -- 8 Oeste 29 Oeste 0 -- -- 91
2019-06-05 13:00:00 -- 5 Noroeste 17 Oeste 0.1 -- -- 44
2019-06-05 12:00:00 -- 6 Sudoeste 21 Sudoeste 0.4 -- -- 20
2019-06-05 11:00:00 -- 8 Sudoeste 19 Sudoeste 0 -- -- 89
2019-06-05 10:00:00 -- 6 Sur 20 Sudeste 0 -- -- 88
2019-06-05 09:00:00 -- 9 Sudeste 20 Sudeste 0 -- -- 90
2019-06-05 08:00:00 29.2 10 Este 20 Sudeste 0 -- -- 91
2019-06-05 07:00:00 -- 12 Sudeste 33 Sudeste 0 -- -- 93
2019-06-05 06:00:00 26.7 19 Sudeste 30 Sudeste 0 -- -- 91
2019-06-05 05:00:00 26.7 14 Sudeste 30 Este 0 -- -- 92
2019-06-05 04:00:00 -- 13 Sudeste 31 Este 0 -- -- 92
2019-06-05 03:00:00 -- 16 Este 26 Este 0 -- -- 90
2019-06-05 02:00:00 -- 8 Este 24 Sudeste 0 -- -- 90
2019-06-05 01:00:00 17.5 8 Nordeste 18 Este 0 -- -- 92
2019-06-05 00:00:00 -- 7 Este 24 Este 0 -- -- 91
2019-06-04 23:00:00 33.8 12 Este 23 Sudeste 0 -- -- 90
2019-06-04 22:00:00 33.1 6 Este 26 Sudeste 0 -- -- 91
2019-06-04 21:00:00 43.3 3 Oeste 36 Sudeste 0 -- -- 90
2019-06-04 20:00:00 -- 19 Sudeste 40 Sudeste 0 -- -- 88
2019-06-04 19:00:00 -- 12 Sudeste 44 Sudeste 0 -- -- 87
2019-06-04 18:00:00 -- 21 Sudeste 43 Este 0 -- -- 86
2019-06-04 17:00:00 -- 15 Sudeste 35 Sudeste 0 -- -- 87
2019-06-04 16:00:00 -- 14 Sudeste 33 Sudeste 0 -- -- 86
2019-06-04 15:00:00 -- 14 Sudeste 35 Sudeste 0 -- -- 86
2019-06-04 14:00:00 -- 16 Sudeste 30 Sudeste 0 -- -- 86
2019-06-04 13:00:00 -- 14 Sudeste 27 Sudeste 0 -- -- 85
2019-06-04 12:00:00 -- 10 Sudeste 26 Sudeste 0 -- -- 84
2019-06-04 11:00:00 -- 6 Sur 19 Sudeste 0 -- -- 84
2019-06-04 10:00:00 -- 6 Sur 18 Sudeste 0 -- -- 87
2019-06-04 09:00:00 -- 5 Sudeste 16 Este 0 -- -- 91
2019-06-04 08:00:00 28.2 10 Este 20 Este 0 -- -- 90
2019-06-04 07:00:00 -- 11 Este 21 Sudeste 0 -- -- 91
2019-06-04 06:00:00 19.7 11 Este 18 Sudeste 0 -- -- 90
2019-06-04 05:00:00 23 10 Este 17 Este 0 -- -- 90
2019-06-04 04:00:00 27.2 3 Este 7 Sudeste 0 -- -- 92
2019-06-04 03:00:00 24.9 0 Calma 4 Este 0 -- -- 92
2019-06-04 02:00:00 31.6 0 Calma 9 Este 0 -- -- 92
2019-06-04 01:00:00 33 0 Calma 15 Sudeste 0 -- -- 91
2019-06-04 00:00:00 38.2 3 Sudeste 23 Sudeste 0 -- -- 91
2019-06-03 23:00:00 -- 10 Sudeste 27 Sudeste 0 -- -- 91
2019-06-03 22:00:00 -- 14 Sudeste 37 Sudeste 0 -- -- 90
2019-06-03 21:00:00 -- 14 Sudeste 32 Sudeste 0 -- -- 88
2019-06-03 20:00:00 -- 14 Sudeste 35 Sudeste 0 -- -- 89
2019-06-03 19:00:00 -- 13 Sudeste 31 Sudeste 0 -- -- 89
2019-06-03 18:00:00 -- 12 Sur 36 Sudeste 0 -- -- 86
2019-06-03 17:00:00 -- 13 Sudeste 35 Sudeste 0 -- -- 86
2019-06-03 16:00:00 -- 16 Sudeste 36 Sudeste 0 -- -- 85
2019-06-03 15:00:00 -- 16 Sudeste 34 Sudeste 0 -- -- 83
2019-06-03 14:00:00 -- 10 Sudeste 29 Sudeste 0 -- -- 84
2019-06-03 13:00:00 -- 7 Sur 20 Sudeste 0 -- -- 83
2019-06-03 12:00:00 -- 5 Sudoeste 14 Sudoeste 0 -- -- 83
2019-06-03 11:00:00 -- 3 Sur 13 Sudeste 0 -- -- 82
2019-06-03 10:00:00 -- 3 Sur 14 Sudeste 0 -- -- 86
2019-06-03 09:00:00 -- 4 Sudeste 8 Sudeste 0 -- -- 90
2019-06-03 08:00:00 -- 7 Sudeste 10 Sudeste 0 -- -- 90
2019-06-03 07:00:00 -- 4 Este 9 Este 0 -- -- 90
2019-06-03 06:00:00 32.1 3 Sudeste 9 Sudeste 0 -- -- 92
2019-06-03 05:00:00 33.6 4 Sudeste 10 Sudeste 0 -- -- 91
2019-06-03 04:00:00 40.1 4 Sur 9 Sudeste 0 -- -- 91
2019-06-03 03:00:00 33.1 4 Sudeste 13 Sudeste 0 -- -- 90
2019-06-03 02:00:00 -- 5 Sudeste 12 Sudeste 0 -- -- 90
2019-06-03 01:00:00 43.2 2 Sudeste 8 Sudeste 0 -- -- 89
2019-06-03 00:00:00 -- 0 Calma 14 Sur 0 -- -- 89
2019-06-02 23:00:00 -- 5 Sudeste 26 Este 0 -- -- 89
2019-06-02 22:00:00 -- 14 Sudeste 33 Sudeste 0 -- -- 87
2019-06-02 21:00:00 -- 16 Sudeste 36 Sudeste 0 -- -- 86
2019-06-02 20:00:00 -- 17 Sudeste 41 Sudeste 0 -- -- 85
2019-06-02 19:00:00 -- 15 Sudeste 39 Sudeste 0 -- -- 85
2019-06-02 18:00:00 -- 13 Sudeste 34 Sudeste 0 -- -- 84
2019-06-02 17:00:00 -- 14 Sudeste 31 Sudeste 0 -- -- 81
2019-06-02 16:00:00 -- 10 Sudeste 25 Sudeste 0 -- -- 82
2019-06-02 15:00:00 -- 12 Sudeste 22 Sudeste 0 -- -- 81
2019-06-02 14:00:00 -- 8 Sudeste 21 Sudeste 0 -- -- 81
2019-06-02 13:00:00 -- 5 Sudoeste 17 Oeste 0 -- -- 79
2019-06-02 12:00:00 -- 3 Sudoeste 13 Sudoeste 0 -- -- 79
2019-06-02 11:00:00 -- 4 Sudoeste 10 Oeste 0 -- -- 79
2019-06-02 10:00:00 -- 0 Calma 5 Sudoeste 0 -- -- 83
2019-06-02 09:00:00 -- 0 Calma 6 Sudeste 0 -- -- 90
2019-06-02 08:00:00 -- 3 Sudeste 7 Sudeste 0 -- -- 90
2019-06-02 07:00:00 -- 3 Sudeste 9 Sudeste 0 -- -- 90
2019-06-02 06:00:00 -- 4 Sudeste 8 Sudeste 0 -- -- 89
2019-06-02 05:00:00 -- 2 Sur 5 Sudeste 0 -- -- 90
2019-06-02 04:00:00 -- 3 Sudeste 9 Este 0 -- -- 89
2019-06-02 03:00:00 -- 3 Sudeste 11 Sudeste 0 -- -- 89
2019-06-02 02:00:00 -- 6 Sudeste 13 Sudeste 0 -- -- 88
2019-06-02 01:00:00 -- 7 Sudeste 15 Sudeste 0 -- -- 88
2019-06-02 00:00:00 -- 7 Sudeste 19 Este 0 -- -- 87
2019-06-01 23:00:00 -- 7 Noroeste 28 Sudeste 0 -- -- 87
2019-06-01 22:00:00 -- 13 Sudeste 30 Sudeste 0 -- -- 86
2019-06-01 21:00:00 -- 14 Sudeste 32 Sudeste 0 -- -- 86
2019-06-01 20:00:00 -- 15 Sudeste 32 Sudeste 0 -- -- 84
2019-06-01 19:00:00 -- 12 Sudeste 31 Sudeste 0 -- -- 84
2019-06-01 18:00:00 -- 12 Sudeste 30 Sudeste 0 -- -- 82
2019-06-01 17:00:00 -- 8 Sur 21 Oeste 0 -- -- 81
2019-06-01 16:00:00 -- 4 Oeste 21 Noroeste 0 -- -- 79
2019-06-01 15:00:00 -- 7 Sudoeste 28 Sudeste 0 -- -- 79
2019-06-01 14:00:00 -- 3 Sudoeste 16 Sudeste 0 -- -- 80
2019-06-01 13:00:00 -- 0 Calma 11 Sur 0 -- -- 78
2019-06-01 12:00:00 -- 0 Calma 11 Oeste 0 -- -- 77
2019-06-01 11:00:00 -- 2 Sudoeste 10 Oeste 0 -- -- 78
2019-06-01 10:00:00 -- 0 Calma 6 Norte 0 -- -- 82
2019-06-01 09:00:00 -- 0 Calma 6 Sudeste 0 -- -- 88
2019-06-01 08:00:00 -- 2 Sudeste 7 Sudeste 0 -- -- 89
2019-06-01 07:00:00 -- 4 Sudeste 8 Sudeste 0 -- -- 90
2019-06-01 06:00:00 -- 0 Calma 5 Sudeste 0 -- -- 91
2019-06-01 05:00:00 -- 3 Sudeste 7 Este 0 -- -- 89
2019-06-01 04:00:00 -- 5 Sudeste 8 Sudeste 0 -- -- 88
2019-06-01 03:00:00 -- 5 Sudeste 11 Este 0 -- -- 89
2019-06-01 02:00:00 -- 0 Calma 8 Sudeste 0 -- -- 88
2019-06-01 01:00:00 -- 3 Sur 9 Este 0 -- -- 88
2019-06-01 00:00:00 -- 0 Calma 18 Sudeste 0 -- -- 89
2019-05-31 23:00:00 -- 8 Sudeste 26 Sudeste 0 -- -- 88
2019-05-31 22:00:00 -- 7 Este 25 Sudeste 0 -- -- 87
2019-05-31 21:00:00 -- 13 Sudeste 30 Sudeste 0 -- -- 86
2019-05-31 20:00:00 -- 10 Sur 28 Sudeste 0 -- -- 85
2019-05-31 19:00:00 -- 11 Sudeste 29 Sur 0 -- -- 83
2019-05-31 18:00:00 -- 12 Sudeste 27 Sudeste 0 -- -- 83
2019-05-31 17:00:00 -- 9 Sur 26 Sudeste 0 -- -- 82
2019-05-31 16:00:00 -- 9 Sudeste 20 Sudeste 0 -- -- 81
2019-05-31 15:00:00 -- 4 Sur 19 Sudeste 0 -- -- 81
2019-05-31 14:00:00 -- 8 Sudeste 24 Sudeste 0 -- -- 80
2019-05-31 13:00:00 -- 3 Noroeste 14 Noroeste 0 -- -- 79
2019-05-31 12:00:00 -- 3 Sur 12 Noroeste 0 -- -- 78
2019-05-31 11:00:00 -- 4 Sudoeste 10 Sur 0 -- -- 79
2019-05-31 10:00:00 -- 3 Sudoeste 9 Sudeste 0 -- -- 81
2019-05-31 09:00:00 -- 2 Este 10 Sudeste 0 -- -- 87
2019-05-31 08:00:00 -- 4 Este 10 Sudeste 0 -- -- 88
2019-05-31 07:00:00 -- 5 Sudeste 8 Sudeste 0 -- -- 88
2019-05-31 06:00:00 -- 3 Este 10 Sudeste 0 -- -- 89
2019-05-31 05:00:00 -- 6 Sudeste 11 Sudeste 0 -- -- 87
2019-05-31 04:00:00 -- 3 Sudeste 7 Este 0 -- -- 88
2019-05-31 03:00:00 -- 3 Este 7 Este 0 -- -- 88
2019-05-31 02:00:00 -- 0 Calma 6 Este 0 -- -- 88
2019-05-31 01:00:00 -- 3 Sudeste 21 Sudeste 0 -- -- 87
2019-05-31 00:00:00 -- 10 Sudeste 22 Sudeste 0 -- -- 88
2019-05-30 23:00:00 -- 9 Sudeste 24 Sur 0 -- -- 87
2019-05-30 22:00:00 -- 12 Sudeste 22 Sudeste 0 -- -- 86
2019-05-30 21:00:00 -- 11 Sudeste 28 Sudeste 0 -- -- 84
2019-05-30 20:00:00 -- 11 Sudeste 23 Sudeste 0 -- -- 83
2019-05-30 19:00:00 -- 4 Sur 14 Sur 0 -- -- 82
2019-05-30 18:00:00 -- 5 Sudoeste 13 Sudoeste 0 -- -- 81
2019-05-30 17:00:00 -- 3 Oeste 15 Sudoeste 0 -- -- 80
2019-05-30 16:00:00 -- 4 Sudoeste 17 Sudoeste 0 -- -- 80
2019-05-30 15:00:00 -- 4 Sudoeste 16 Noroeste 0 -- -- 81
2019-05-30 14:00:00 -- 4 Oeste 19 Noroeste 0 -- -- 81
2019-05-30 13:00:00 -- 3 Oeste 14 Sudoeste 0 -- -- 80
2019-05-30 12:00:00 -- 4 Sur 14 Sur 0 -- -- 81
2019-05-30 11:00:00 -- 2 Oeste 12 Oeste 0 -- -- 80
2019-05-30 10:00:00 -- 6 Sudoeste 12 Sudoeste 0 -- -- 99
2019-05-30 09:00:00 -- 3 Oeste 9 Noroeste 0 -- -- 99
2019-05-30 08:00:00 -- 0 Calma 4 Sudeste 0 -- -- 99
2019-05-30 07:00:00 -- 0 Calma 5 Sudeste 0 -- -- 99
2019-05-30 06:00:00 -- 3 Sudeste 6 Sudeste 0 -- -- 99
2019-05-30 05:00:00 -- 3 Sur 7 Sudeste 0 -- -- 99
2019-05-30 04:00:00 -- 2 Sudeste 8 Este 0 -- -- 99
2019-05-30 03:00:00 -- 3 Sudeste 9 Sudeste 0 -- -- 90
2019-05-30 02:00:00 -- 5 Sudeste 13 Sudeste 0 -- -- 88
2019-05-30 01:00:00 -- 8 Sudeste 15 Este 0 -- -- 87
2019-05-30 00:00:00 -- 5 Este 12 Sudeste 0 -- -- 87
2019-05-29 23:00:00 -- 4 Sudeste 13 Sur 0 -- -- 86
2019-05-29 22:00:00 -- 5 Sudeste 12 Sudeste 0 -- -- 86
2019-05-29 21:00:00 -- 2 Oeste 15 Sudoeste 0 -- -- 84
2019-05-29 20:00:00 -- 6 Oeste 22 Oeste 0 -- -- 82
2019-05-29 19:00:00 -- 8 Sudoeste 22 Sudoeste 0 -- -- 80
2019-05-29 18:00:00 -- 8 Oeste 25 Sudoeste 0 -- -- 80
2019-05-29 17:00:00 -- 7 Sudoeste 25 Sudoeste 0 -- -- 80
2019-05-29 16:00:00 -- 7 Sudoeste 27 Oeste 0 -- -- 78
2019-05-29 15:00:00 -- 7 Oeste 28 Oeste 0 -- -- 78
2019-05-29 14:00:00 -- 6 Oeste 26 Sudoeste 0 -- -- 78
2019-05-29 13:00:00 -- 9 Sudoeste 23 Sudoeste 0 -- -- 78
2019-05-29 12:00:00 -- 7 Sudoeste 22 Sudoeste 0 -- -- 98
2019-05-29 11:00:00 -- 7 Sudoeste 22 Sudoeste 0 -- -- 98
2019-05-29 10:00:00 -- 7 Sudoeste 24 Sudoeste 0 -- -- 99
2019-05-29 09:00:00 -- 6 Sudoeste 18 Sudoeste 0 -- -- 99
2019-05-29 08:00:00 -- 7 Sudoeste 18 Sudoeste 0 -- -- 99
2019-05-29 07:00:00 -- 2 Sur 10 Sur 0 -- -- 99
2019-05-29 06:00:00 -- 3 Sur 10 Sudoeste 0 -- -- 99
2019-05-29 05:00:00 -- 4 Sur 13 Sur 0 -- -- 99
2019-05-29 04:00:00 -- 3 Sudoeste 22 Sudoeste 0 -- -- 99
2019-05-29 03:00:00 -- 4 Sudoeste 16 Sudoeste 0 -- -- 83
2019-05-29 02:00:00 -- 6 Sur 21 Sur 0 -- -- 82
2019-05-29 01:00:00 -- 5 Sur 19 Sur 0 -- -- 82
2019-05-29 00:00:00 -- 6 Sur 19 Sur 0 -- -- 82
2019-05-28 23:00:00 -- 5 Sudoeste 30 Sur 0 -- -- 82
2019-05-28 22:00:00 -- 6 Sudoeste 30 Sudoeste 0 -- -- 82
2019-05-28 21:00:00 -- 11 Sudoeste 37 Sudoeste 0 -- -- 80
2019-05-28 20:00:00 -- 8 Sudoeste 33 Sudoeste 0 -- -- 79
2019-05-28 19:00:00 -- 11 Sudoeste 31 Sudoeste 0 -- -- 78
2019-05-28 18:00:00 -- 12 Sudoeste 34 Oeste 0 -- -- 77
2019-05-28 17:00:00 -- 9 Sudoeste 29 Sudoeste 0 -- -- 75
2019-05-28 16:00:00 -- 10 Sudoeste 32 Oeste 0 -- -- 76
2019-05-28 15:00:00 -- 8 Sudoeste 27 Sudoeste 0 -- -- 76
2019-05-28 14:00:00 -- 11 Sudoeste 27 Sudoeste 0 -- -- 75
2019-05-28 13:00:00 -- 10 Sudoeste 27 Sur 0 -- -- 76
2019-05-28 12:00:00 -- 8 Sudoeste 27 Sudoeste 0 -- -- 75
2019-05-28 11:00:00 -- 10 Sudoeste 28 Sudoeste 0 -- -- 74
2019-05-28 10:00:00 -- 8 Sudoeste 26 Sudoeste 0 -- -- 76
2019-05-28 09:00:00 -- 8 Sudoeste 22 Sudoeste 0 -- -- 78
2019-05-28 08:00:00 -- 6 Sudoeste 14 Sudoeste 0 -- -- 79
2019-05-28 07:00:00 -- 5 Sudoeste 11 Sudoeste 0 -- -- 79
2019-05-28 06:00:00 -- 3 Sudoeste 13 Sudoeste 0 -- -- 80
2019-05-28 05:00:00 -- 3 Sudoeste 12 Sudoeste 0 -- -- 80
2019-05-28 04:00:00 -- 4 Sudoeste 14 Sudoeste 0 -- -- 80
2019-05-28 03:00:00 -- 6 Sudoeste 17 Oeste 0 -- -- 79
2019-05-28 02:00:00 -- 4 Sudoeste 16 Sudoeste 0 -- -- 78
2019-05-28 01:00:00 -- 5 Sur 19 Sur 0 -- -- 77
2019-05-28 00:00:00 -- 4 Sudoeste 19 Sudoeste 0 -- -- 79
2019-05-27 23:00:00 -- 4 Sur 14 Sur 0 -- -- 78
2019-05-27 22:00:00 -- 3 Sur 9 Sudoeste 0 -- -- 78
2019-05-27 21:00:00 -- 2 Sudeste 13 Sudoeste 0 -- -- 77
2019-05-27 20:00:00 -- 6 Sudoeste 23 Sudoeste 0 -- -- 77
2019-05-27 19:00:00 -- 9 Sudoeste 28 Sudoeste 0 -- -- 75
2019-05-27 18:00:00 -- 9 Sudoeste 27 Sudoeste 0 -- -- 75
2019-05-27 17:00:00 -- 8 Oeste 24 Oeste 0 -- -- 75
2019-05-27 16:00:00 -- 7 Oeste 30 Noroeste 0 -- -- 75
2019-05-27 15:00:00 -- 7 Sudoeste 24 Oeste 0 -- -- 73
2019-05-27 14:00:00 -- 7 Oeste 26 Oeste 0 -- -- 75
2019-05-27 13:00:00 -- 8 Oeste 26 Oeste 0 -- -- 95
2019-05-27 12:00:00 -- 8 Sudoeste 20 Sudoeste 0 -- -- 95
2019-05-27 11:00:00 -- 6 Oeste 16 Sudoeste 0 -- -- 98
2019-05-27 10:00:00 -- 5 Oeste 14 Sudoeste 0 -- -- 99
2019-05-27 09:00:00 -- 8 Sudoeste 21 Oeste 0 -- -- 99
2019-05-27 08:00:00 -- 4 Sudoeste 9 Sudoeste 0 -- -- --
2019-05-27 07:00:00 -- 0 Calma 8 Oeste 0 -- -- 74
2019-05-27 06:00:00 -- 0 Calma 12 Oeste 0 -- -- 91
2019-05-27 05:00:00 -- 4 Sudoeste 11 Oeste 0 -- -- 87
2019-05-27 04:00:00 -- 4 Sudoeste 12 Sudoeste 0 -- -- 84
2019-05-27 03:00:00 -- 4 Oeste 12 Oeste 0 -- -- 83
2019-05-27 02:00:00 -- 3 Oeste 15 Sudoeste 0 -- -- 83
2019-05-27 01:00:00 -- 3 Oeste 17 Oeste 0 -- -- 84
2019-05-27 00:00:00 -- 4 Sudoeste 10 Sudeste 0 -- -- 84
2019-05-26 23:00:00 -- 6 Sudeste 11 Nordeste 0 -- -- 83
2019-05-26 22:00:00 -- 0 Calma 14 Nordeste 0 -- -- 79
2019-05-26 21:00:00 -- 3 Noroeste 16 Sudoeste 0 -- -- 76
2019-05-26 20:00:00 -- 5 Oeste 18 Oeste 0 -- -- 75
2019-05-26 19:00:00 -- 5 Oeste 22 Oeste 0 -- -- 73
2019-05-26 18:00:00 -- 6 Oeste 24 Sudoeste 0 -- -- 73
2019-05-26 17:00:00 -- 7 Oeste 24 Noroeste 0 -- -- 74
2019-05-26 16:00:00 -- 8 Sudoeste 23 Sudoeste 0 -- -- 73
2019-05-26 15:00:00 -- 6 Oeste 23 Sudoeste 0 -- -- 74
2019-05-26 14:00:00 -- 6 Sudoeste 23 Sudoeste 0 -- -- 78
2019-05-26 13:00:00 -- 8 Sudoeste 25 Sudoeste 0 -- -- 99
2019-05-26 12:00:00 -- 6 Sudoeste 20 Sudoeste 0 -- -- 99
2019-05-26 11:00:00 -- 5 Oeste 20 Sudoeste 0 -- -- 99
2019-05-26 10:00:00 -- 6 Sudoeste 21 Sudoeste 0 -- -- 99
2019-05-26 09:00:00 -- 6 Sudoeste 17 Sudoeste 0 -- -- 99
2019-05-26 08:00:00 -- 4 Sudoeste 12 Sudoeste 0 -- -- 96
2019-05-26 07:00:00 -- 0 Calma 8 Sudoeste 0 -- -- 97
2019-05-26 06:00:00 -- 2 Sudoeste 12 Oeste 0 -- -- 99
2019-05-26 05:00:00 -- 4 Sudoeste 15 Oeste 0 -- -- 97
2019-05-26 04:00:00 -- 4 Sudoeste 16 Sudoeste 0 -- -- 96
2019-05-26 03:00:00 -- 5 Sudoeste 15 Oeste 0 -- -- 97
2019-05-26 02:00:00 -- 6 Sudoeste 15 Sudoeste 0 -- -- 98
2019-05-26 01:00:00 -- 5 Sudoeste 12 Oeste 0 -- -- 97
2019-05-26 00:00:00 -- 4 Sudoeste 12 Sudoeste 0 -- -- 94
2019-05-25 23:00:00 -- 2 Sudeste 9 Sudoeste 0 -- -- 84
2019-05-25 22:00:00 -- 4 Sudoeste 9 Sudoeste 0 -- -- 96
2019-05-25 21:00:00 -- 5 Sudoeste 14 Sudoeste 0 -- -- 95
2019-05-25 20:00:00 -- 3 Oeste 12 Noroeste 0 -- -- 92
2019-05-25 19:00:00 -- 5 Oeste 17 Noroeste 0 -- -- 77
2019-05-25 18:00:00 -- 6 Oeste 21 Noroeste 0 -- -- 76
2019-05-25 17:00:00 -- 5 Noroeste 18 Sudoeste 0 -- -- 78
2019-05-25 16:00:00 -- 4 Oeste 15 Oeste 0 -- -- 81
2019-05-25 15:00:00 -- 5 Oeste 14 Noroeste 0 -- -- 96
2019-05-25 14:00:00 -- 3 Oeste 14 Oeste 0 -- -- 79
2019-05-25 13:00:00 -- 4 Oeste 14 Noroeste 0.1 -- -- 36
2019-05-25 12:00:00 -- 4 Oeste 13 Sur 0 -- -- 24
2019-05-25 11:00:00 -- 4 Sudoeste 14 Sudoeste 0 -- -- 21
2019-05-25 10:00:00 -- 4 Oeste 14 Sudoeste 0 -- -- 22
2019-05-25 09:00:00 -- 4 Oeste 15 Oeste 0 -- -- 23
2019-05-25 08:00:00 -- 4 Oeste 12 Sudoeste 0 -- -- 21
2019-05-25 07:00:00 -- 0 Calma 14 Sudoeste 0 -- -- 20
2019-05-25 06:00:00 -- 5 Sudoeste 15 Sudoeste 0 -- -- 21
2019-05-25 05:00:00 -- 4 Sudoeste 13 Sudoeste 0 -- -- 25
2019-05-25 04:00:00 -- 2 Sudoeste 10 Sudoeste 0 -- -- 30
2019-05-25 03:00:00 -- 0 Calma 6 Sudoeste 0 -- -- 32
2019-05-25 02:00:00 -- 2 Sudeste 5 Sudeste 0 -- -- 34
2019-05-25 01:00:00 -- 0 Calma 4 Este 0 -- -- 36
2019-05-25 00:00:00 -- 0 Calma 3 Este 0.1 -- -- 39